Torna al catalogo

STARLINK-35463

AttivoComunicazioniVLEO
NORAD 66463·PAYLOAD·🇺🇸 United States

Lanciato Nov 15, 2025 da Cape Canaveral Space Force Station

Loading…

Prossimi Passaggi (prossime 24 ore)

TLE

AggiornatoSource: CelesTrak SupGP

Epoca: Sep 15, 2026, 03:16 UTC

1 66463C 25262H   26258.13659722  .00021848  00000+0  79114-3 0  2585
2 66463  43.0006 306.3605 0001415 266.1355 282.5520 15.27575592    15

Traccia STARLINK-35463 in tempo reale con AllMySat

Download on the App Store